Location: Azenweiler
(47.8027°N, 9.4096°E)
Time: 06:52:00
(UTC+00:00)

Cosmos 1125 Rocket - Pass Details

Date: 10 December 2025
Orbit: 754 x 775 km, 74.0° (Epoch: 13 January)

Event Time Altitude Azimuth Distance (km) Brightness Sun altitude
Exits shadow 06:01:54 - 336° (NNW) 2,943 6.1 -9.4°
Reaches altitude 10° 06:03:30 10° 335° (NNW) 2,322 5.6 -9.2°
Maximum altitude 06:08:46 80° 250° (WSW) 784 3.5 -8.4°
Drops below altitude 10° 06:13:58 10° 164° (SSE) 2,291 6.6 -7.6°
Sets 06:16:19 0° 163° (SSE) 3,209 7.4 -7.2°
